Home > Weather > Bellinzona > Past weeks

Flag for Switzerland Weather for the Past 2 Weeks in Bellinzona, Ticino, Switzerland

Now
43 °F

Quite cool.


Feels Like: 41 °F
Forecast: 32 / 46 °F
Wind: 3 mph from West

Location: Locarno-Magadino

Current Time: Feb 13, 2016 at 7:09:40 PM

Latest Report: Feb 13, 2016 at 6:00 PM


Visibility: N/A

Pressure: 29.38 "Hg

Humidity: 55%

Dew point: 28 °F

Location of BellinzonaLocation

Historic Weather in Bellinzona — Graph

°F

Bellinzona Temperature Yesterday

Maximum temperature yesterday: 44 °F (at 12:00 PM)
Minimum temperature yesterday: 30 °F (at 7:00 AM)
Average temperature yesterday: 37 °F

High & Low Weather Summary for the Past Weeks

 TemperatureHumidityPressure
High57 °F (Feb 1, 1:00 PM)100% (Feb 2, 7:00 AM)30.52 "Hg (Feb 2, 7:00 AM)
Low28 °F (Feb 13, 8:00 AM)17% (Feb 4, 1:00 PM)29.38 "Hg (Feb 10, 12:00 AM)
Average41 °F76%30.01 "Hg
* Reported Jan 29 5:00 PM — Feb 13 5:00 PM, Bellinzona, Weather by CustomWeather, © 2016

Note: Actual official high and low records may vary slightly from our data, if they occured in-between our weather recording intervals... More about our weather records

Advertising

Bellinzona Weather History for the Previous 24 Hours

 ConditionsComfort  
Time TempWeatherWind HumidityBarometerVisibility
5:00 PM
Sat, Feb 13
43 °FQuite cool.8 mph62%29.38 "HgN/A
4:00 PM44 °FQuite cool.7 mph58%29.38 "HgN/A
3:00 PM44 °FQuite cool.3 mph61%29.38 "HgN/A
2:00 PM41 °FQuite cool.1 mph70%29.44 "HgN/A
1:00 PM38 °FChilly.3 mph74%29.44 "HgN/A
12:00 PM37 °FChilly.1 mph75%29.47 "HgN/A
11:00 AM36 °FChilly.1 mph80%29.47 "HgN/A
10:00 AM34 °FChilly.2 mph85%29.47 "HgN/A
9:00 AM30 °FChilly.3 mph90%29.50 "HgN/A
8:00 AM28 °FChilly.1 mph93%29.50 "HgN/A
7:00 AM29 °FChilly.1 mph96%29.50 "HgN/A
6:00 AM29 °FChilly.1 mph95%29.50 "HgN/A
5:00 AM30 °FChilly.1 mph96%29.50 "HgN/A
1:00 AM33 °FChilly.1 mph96%29.54 "HgN/A
11:00 PM
Fri, Feb 12
35 °FChilly.2 mph95%29.55 "HgN/A
10:00 PM35 °FChilly.1 mph97%29.57 "HgN/A
9:00 PM35 °FChilly.1 mph95%29.57 "HgN/A
8:00 PM37 °FChilly.No wind90%29.57 "HgN/A
7:00 PM38 °FChilly.1 mph87%29.59 "HgN/A
Weather by CustomWeather, © 2016

See weather overviewHow to use our weather pages